Weather History for Auckland, New Zealand

Change the Weather History Date:

Friday, August 2, 2013

  Actual Average Record
Temperature  
Mean Temperature 58 °F -  
Max Temperature 60 °F 56 °F 66 °F (2014)
Min Temperature 55 °F 45 °F 39 °F (1997)
Degree Days  
Heating Degree Days 8    
Growing Degree Days 8 (Base 50)    
Moisture  
Dew Point 53 °F    
Average Humidity 83    
Maximum Humidity 88    
Minimum Humidity 77    
Precipitation  
Precipitation 0.00 in - - ()
Sea Level Pressure  
Sea Level Pressure 29.90 in    
Wind  
Wind Speed 12 mph ()    
Max Wind Speed 21 mph    
Max Gust Speed 36 mph    
Visibility 6.2 miles    
Events Rain    
Averages and records for this station are not official NWS values.
T = Trace of Precipitation, MM = Missing Value Source: Averaged Metar Reports

Daily Weather History Graph

Daily Weather History Graph

Search for Another Location

Airport:

Trip Planner

Search our weather history database for the weather conditions in past years. The results will help you decide how hot, cold, wet, or windy it might be!

Date:

Astronomy

Aug. 02, 2013 Rise Set
Actual Time 7:18 AM NZST 5:35 PM NZST
Civil Twilight 6:51 AM NZST 6:03 PM NZST
Nautical Twilight 6:20 AM NZST 6:34 PM NZST
Astronomical Twilight 5:49 AM NZST 7:05 PM NZST
Moon 3:24 AM NZST (8/2) 1:36 PM NZST (8/2)
Length of Visible Light 11h 12m
Length of Day
10h 17m
Waning Crescent, 21% of the Moon is Illuminated
Aug 2
Waning Crescent
Aug 7
New
Aug 14
First Quarter
Aug 21
Full
Aug 28
Last Quarter

Hourly Weather History & Observations

Time (NZST) Temp. Dew Point Humidity Pressure Visibility Wind Dir Wind Speed Gust Speed Precip Events Conditions
12:00 AM 55.4 °F 50.0 °F 82% 30.09 in 6.2 mi East 11.5 mph - N/A   Mostly Cloudy
1:00 AM 55.4 °F 51.8 °F 88% 30.06 in 6.2 mi ESE 9.2 mph - N/A   Scattered Clouds
2:00 AM 55.4 °F 51.8 °F 88% 30.04 in 6.2 mi ESE 8.1 mph - N/A   Scattered Clouds
3:00 AM 57.2 °F 51.8 °F 82% 30.01 in 6.2 mi East 10.4 mph - N/A   Scattered Clouds
4:00 AM 57.2 °F 51.8 °F 82% 29.98 in 6.2 mi East 18.4 mph - N/A   Scattered Clouds
5:00 AM 57.2 °F 51.8 °F 82% 29.98 in 6.2 mi East 17.3 mph - N/A Rain Light Rain Showers
6:00 AM 57.2 °F 51.8 °F 82% 29.95 in 6.2 mi East 15.0 mph - N/A Rain Light Rain Showers
7:00 AM 57.2 °F 51.8 °F 82% 29.95 in 6.2 mi East 16.1 mph 27.6 mph N/A   Scattered Clouds
8:00 AM 57.2 °F 51.8 °F 82% 29.95 in 6.2 mi East 15.0 mph - N/A   Scattered Clouds
9:00 AM 59.0 °F 51.8 °F 77% 29.95 in 6.2 mi East 20.7 mph - N/A   Mostly Cloudy
10:00 AM 59.0 °F 53.6 °F 82% 29.95 in 6.2 mi East 18.4 mph - N/A   Mostly Cloudy
11:00 AM 60.8 °F 53.6 °F 77% 29.92 in 6.2 mi East 20.7 mph - N/A   Mostly Cloudy
12:00 PM 60.8 °F 53.6 °F 77% 29.92 in 6.2 mi East 19.6 mph 35.7 mph N/A   Mostly Cloudy
1:00 PM 60.8 °F 53.6 °F 77% 29.86 in 6.2 mi East 16.1 mph - N/A   Mostly Cloudy
2:00 PM 60.8 °F 53.6 °F 77% 29.83 in 6.2 mi East 17.3 mph - N/A   Mostly Cloudy
3:00 PM 60.8 °F 55.4 °F 82% 29.83 in 6.2 mi ENE 20.7 mph - N/A   Mostly Cloudy
4:00 PM 59.0 °F 55.4 °F 88% 29.80 in 6.2 mi East 19.6 mph - N/A   Mostly Cloudy
5:00 PM 60.8 °F 53.6 °F 77% 29.80 in 6.2 mi East 15.0 mph - N/A   Mostly Cloudy
6:00 PM 59.0 °F 53.6 °F 82% 29.80 in 6.2 mi East 13.8 mph - N/A   Mostly Cloudy
7:00 PM 59.0 °F 53.6 °F 82% 29.80 in 6.2 mi East 9.2 mph - N/A   Mostly Cloudy
8:00 PM 57.2 °F 53.6 °F 88% 29.80 in 6.2 mi ESE 5.8 mph - N/A   Mostly Cloudy
9:00 PM 57.2 °F 53.6 °F 88% 29.80 in 6.2 mi ESE 6.9 mph - N/A   Mostly Cloudy
10:00 PM 57.2 °F 53.6 °F 88% 29.80 in 6.2 mi ESE 8.1 mph - N/A   Mostly Cloudy
11:00 PM 57.2 °F 53.6 °F 88% 29.80 in 6.2 mi ESE 12.7 mph - N/A   Mostly Cloudy